Location: Arcusa
(42.3167°N, 0.0833°W)
Time: 04:23:54
(UTC+00:00)

CZ-4B R/B - Pass Details

Date: 25 January 2020
Orbit: 808 x 882 km, 99.1° (Epoch: 25 February)

Event Time Altitude Azimuth Distance (km) Brightness Sun altitude
Rises 05:14:15 0° 20° (NNE) 3,443 6.6 -23.3°
Reaches altitude 10° 05:16:46 10° 27° (NNE) 2,491 5.9 -22.9°
Maximum altitude 05:22:02 44° 99° (E) 1,145 4.3 -21.9°
Drops below altitude 10° 05:27:10 10° 171° (S) 2,428 5.8 -20.9°
Sets 05:29:35 0° 178° (S) 3,347 6.4 -20.5°
